Find KUIPER-00511

NORAD ID: 68888 Int'l Des: 2026-095AA Owner: KUIP Country: US Constellation: amazon-leo operational
LEOCIRCULAR

Current View

Loading 3D Globe...

About KUIPER-00511

KUIPER-00511 (NORAD 68888) is a amazon-leo constellation satellite launched Apr 28, 2026 by KUIP of US. It operates in LEO, CIRCULAR orbit with a mass of 490.00 kg.

About KUIPER-00511

Description loading...

Upcoming Passes

Passes for default location (London). Set your location on the main map for personalized predictions.

Altitude History

Loading altitude history...

Two-Line Element Set

1 68888U 26095AA 26168.41313887 .00022855 00000-0 61004-3 0 9994
2 68888 51.8765 241.3111 0006787 310.8318 49.2080 15.38001849 7769
Epoch: Jun 17, 2026 • Age: 23 hours

Current Status

Altitude 457.7 km
Velocity 7.64 km/s
Sub-Earth Point -33.74°S, 161.88°E
Launch Date Apr 28, 2026
Age 0.1 years
Type internet

Technical Details

Classification Payload
Mass 490.00 kg
Dry Mass 490.00 kg
Total Mass 490.00 kg
Length 1.80 m
Diameter 0.70 m
Span 5.00 m
Shape Box + 2 pan
Manufacturer KUIP
Bus Type Kuiper
Phase Status In Orbit
Owner/State KUIP/US

Most Searched